SCP
2 2 3 2 2 1 1 2 2 1 1 1 1 1 1 1 1 1 1 1 1 1 2 2 1 1 1 1 1 1 1 2 2 2 2 2 2 2 2 2 2 2 2
2 2 2 2 1 1 1 1 1 1 1 1 1 1 1 1 1 1 1 1 1 1 1 1 1 1 1 1 1 1 1 2 2 2 2 2 2 2 2 2 2 2 2
2 2 2 1 1 1 1 1 1 1 1 1 1 1 1 1 2 2 2 2 2 1 1 1 1 1 1 1 1 1 1 1 1 1 1 1 1 1 2 2 2 2 2
2 2 2 2 1 1 1 1 1 1 1 1 1 1 1 2 2 2 2 2 2 2 1 1 1 1 1 1 1 1 1 1 1 1 1 1 1 1 1 1 1 1 1
2 2 2 2 2 1 1 1 1 1 1 1 1 1 1 1 2 1 1 2 2 2 2 1 1 1 1 1 1 1 1 1 1 1 1 1 1 1 1 1 1 1 1
2 2 2 2 2 2 1 1 1 1 1 1 1 1 1 2 2 1 1 1 2 2 2 2 2 1 1 1 1 1 1 1 1 1 1 1 1 1 1 1 1 1 1
2 2 2 2 2 2 2 2 1 1 1 1 1 1 2 2 2 1 1 1 2 2 2 3 2 2 1 1 1 1 1 1 1 1 1 1 1 1 1 1 1 1 1
3 2 2 2 2 2 2 2 2 1 1 1 1 1 1 2 2 2 2 2 2 2 2 2 3 3 2 1 1 1 1 1 1 1 1 1 1 1 1 1 1 1 1
3 3 2 3 2 3 3 2 2 2 1 1 1 1 1 1 2 2 2 2 2 2 2 2 3 3 3 2 1 1 1 1 1 2 2 1 1 1 1 1 1 1 1
4 3 3 3 3 3 3 3 2 2 2 2 2 2 1 2 2 2 2 2 2 2 2 2 2 3 3 3 2 2 1 1 1 2 2 2 2 2 1 1 1 1 1
5 5 4 4 4 4 4 3 3 3 3 3 3 3 2 2 2 2 2 2 2 2 2 2 2 2 3 3 2 2 1 1 2 3 3 2 2 2 2 1 1 1 1
7 6 5 5 5 4 5 5 4 4 4 4 4 4 3 3 2 2 2 2 2 2 2 2 2 2 2 2 2 2 1 1 2 3 3 2 2 2 2 2 2 1 1
8 8 7 6 5 5 5 6 6 6 6 6 5 5 4 3 2 2 2 2 2 2 2 2 1 1 1 2 2 2 1 1 1 2 2 1 2 2 2 2 2 2 2
9 9 9 7 6 6 6 6 7 7 7 7 6 5 4 3 2 2 2 2 2 2 2 2 1 1 1 2 2 1 1 1 1 1 1 1 1 1 1 2 2 2 1
9 10 9 7 7 7 8 7 7 7 7 7 6 5 4 4 3 2 2 3 2 2 2 2 2 2 2 2 1 1 1 1 1 1 1 0 0 1 1 1 1 1 1
9 10 9 7 7 9 9 9 8 8 8 7 6 5 5 4 3 2 2 3 2 2 2 2 2 2 2 1 1 1 1 1 1 1 1 0 0 0 0 1 1 1 1
9 9 8 7 7 8 9 9 9 9 8 6 5 5 6 4 3 2 2 2 2 2 2 2 2 3 3 2 2 1 1 1 1 1 1 1 0 0 0 0 0 0 0
9 8 7 7 6 7 8 9 9 8 7 5 4 4 5 4 3 3 2 2 2 2 1 1 2 3 3 3 2 2 1 1 1 1 1 1 0 0 0 0 0 0 0
9 8 7 6 6 6 7 7 7 7 5 4 4 4 3 3 3 3 3 2 2 2 1 1 2 2 2 3 3 2 2 1 1 1 1 1 1 0 0 0 0 0 0
8 8 8 6 6 5 5 6 6 6 5 4 4 4 3 3 3 4 4 3 3 2 2 2 1 1 2 2 2 3 2 2 2 2 2 1 1 1 0 0 0 0 0
9 9 9 7 5 4 4 4 5 5 5 4 4 4 4 3 3 3 4 4 3 3 2 2 2 1 1 2 2 2 2 2 2 2 2 2 1 1 1 1 0 0 0
11 11 10 8 6 4 3 3 4 4 4 4 4 4 3 3 3 3 3 4 3 3 2 2 2 2 2 2 2 2 2 2 3 3 3 3 3 3 2 2 1 0 0
13 13 11 9 8 5 3 2 2 3 4 4 3 3 3 3 3 3 3 4 3 3 2 2 2 2 2 2 2 2 3 3 4 4 4 4 3 4 3 2 1 0 0
15 15 13 10 8 5 2 1 1 2 3 3 3 3 3 3 3 4 4 4 4 3 3 2 2 2 2 2 2 3 3 3 3 4 4 4 4 4 4 2 1 0 0
17 16 14 11 8 6 2 1 1 2 3 4 4 4 4 4 4 4 4 5 5 4 3 2 2 2 2 2 2 2 3 3 3 4 4 5 5 5 5 3 1 0 0
19 17 14 11 9 6 3 1 1 2 3 4 4 4 3 3 3 4 4 5 6 5 3 3 2 2 1 1 2 2 3 4 4 4 5 5 6 7 6 4 2 0 0
Wind_Speed
1 2 1 1 1 1 2 2 1 2 1 1 1 1 1 2 4 5 5 10 10 9 8 8 7 7 7 8 9 8 7 7 7 7 7 6 6 6 5 6 5 5 5
1 1 1 1 1 1 2 1 1 2 2 1 1 1 2 2 3 4 5 6 9 9 8 8 8 7 7 7 8 8 8 7 6 6 6 6 6 6 6 6 6 6 5
1 1 1 1 1 1 2 1 1 1 2 2 1 2 2 2 2 3 4 4 5 8 8 7 7 7 7 7 8 8 7 7 6 5 5 6 6 6 5 5 5 5 5
1 1 1 1 1 1 1 2 2 1 1 1 2 1 2 2 2 2 3 4 4 5 6 8 7 6 7 7 8 8 8 8 7 6 6 5 5 5 5 5 5 5 5
1 1 1 2 1 1 1 1 2 1 1 1 2 2 2 1 2 2 3 4 4 4 4 6 8 7 7 7 8 8 8 8 7 7 6 6 5 5 5 5 5 5 5
2 1 1 2 1 1 1 2 2 1 1 0 1 2 1 2 1 1 2 3 4 4 5 6 5 5 7 6 7 7 7 7 7 7 7 6 6 6 6 5 5 5 5
2 2 1 2 1 1 1 1 1 1 1 1 1 1 1 1 2 2 2 2 3 4 4 5 5 4 4 6 6 7 7 7 7 7 7 7 6 6 6 6 6 5 5
2 2 1 1 1 1 1 1 1 0 1 1 1 1 1 0 0 2 2 2 2 3 3 5 4 5 5 4 5 7 6 6 6 6 6 5 5 5 5 6 6 6 5
2 1 2 1 0 1 1 1 1 0 1 0 1 1 1 1 0 0 2 2 2 2 2 3 4 4 5 4 5 6 7 6 6 7 6 6 5 5 5 5 5 6 5
2 2 2 1 0 1 1 1 1 1 1 1 1 1 0 2 1 1 1 2 2 2 2 2 3 4 4 4 5 7 7 6 5 6 6 6 5 5 5 5 5 5 5
2 2 2 1 1 0 1 0 0 1 1 1 1 1 0 1 1 2 2 2 1 2 2 2 3 3 4 4 4 6 7 6 6 5 5 5 5 5 5 5 4 5 5
2 2 2 2 1 1 1 1 1 1 1 1 1 1 1 1 1 1 1 2 2 1 2 2 2 3 3 4 5 8 8 7 6 6 5 5 5 5 5 5 5 4 4
2 2 2 1 1 1 1 1 1 1 1 1 1 2 1 1 0 1 1 1 1 1 1 1 2 2 3 4 4 8 8 8 7 7 6 6 5 5 5 4 4 4 4
2 3 2 2 1 1 1 1 1 2 2 1 1 1 1 1 1 0 1 1 1 1 1 1 1 2 2 4 5 8 6 8 8 7 7 7 6 6 5 5 4 4 3
2 3 3 2 1 0 0 0 1 1 0 0 1 1 1 1 1 1 0 1 1 1 1 2 1 2 2 3 6 4 4 8 9 8 8 8 7 6 6 6 5 4 4
2 2 2 2 1 1 1 1 1 1 1 1 0 0 1 1 1 1 1 1 1 1 1 1 1 2 2 4 6 4 4 9 9 10 10 9 8 8 7 7 6 6 5
3 3 2 2 2 1 1 1 1 1 1 1 1 1 0 1 1 1 1 1 1 0 1 1 1 2 2 2 3 3 4 5 6 11 11 11 10 9 9 8 7 7 6
3 3 3 3 2 2 1 1 1 1 1 1 1 0 0 1 0 1 2 1 1 0 1 1 1 2 2 3 3 3 4 5 4 9 12 12 11 11 10 9 8 7 6
3 3 3 2 2 2 1 1 1 1 1 1 1 1 1 0 1 1 1 1 2 1 1 2 2 2 1 2 2 3 3 2 4 6 10 10 11 11 10 9 8 8 7
3 3 3 2 2 2 2 2 2 2 1 1 1 1 1 1 1 2 2 2 2 1 1 2 2 2 2 2 2 2 2 2 2 2 4 6 8 10 10 9 8 8 8
3 3 3 2 2 2 2 2 2 3 2 2 1 1 1 1 1 0 1 1 1 2 1 1 2 1 1 1 2 2 1 1 1 1 1 2 4 4 6 8 9 9 9
3 3 3 3 3 2 2 1 1 1 1 2 2 1 2 2 3 3 2 0 1 2 2 2 2 1 1 1 1 2 1 1 1 1 1 2 3 4 4 5 8 10 10
3 3 3 3 3 2 2 2 1 2 2 2 2 2 3 2 3 3 3 3 3 3 4 3 2 2 1 1 1 2 2 2 2 2 1 2 1 2 3 4 10 12 11
3 3 3 3 3 3 3 3 2 3 3 3 3 3 3 1 2 1 3 3 3 3 4 3 3 3 2 1 2 2 3 3 3 2 2 2 2 2 2 2 9 11 11
3 3 3 4 3 2 3 3 3 3 3 4 4 3 3 2 2 2 2 3 3 3 3 3 4 4 3 3 2 2 2 2 3 2 2 2 2 1 1 2 5 10 11
3 3 4 4 4 3 4 5 4 3 3 3 3 3 3 3 3 3 3 4 4 4 3 2 3 4 5 5 6 4 3 3 3 2 2 1 1 1 1 2 2 4 5
Wind_Direction
117 121 124 115 125 134 138 142 157 141 115 110 141 114 122 107 116 125 135 153 157 157 159 164 170 172 172 174 171 172 178 179 177 177 179 180 183 190 197 201 207 200 194
92 114 114 109 110 117 121 125 132 121 122 110 105 92 78 91 113 130 139 154 159 161 164 167 171 174 176 171 170 175 180 184 183 183 185 188 189 191 197 203 206 203 202
88 103 111 133 130 131 125 125 108 120 135 135 125 109 93 91 119 133 142 149 157 166 169 166 170 176 176 175 171 173 175 177 178 177 181 181 183 186 190 193 196 198 200
75 86 106 115 111 124 136 139 134 128 114 122 120 112 106 118 134 138 144 147 155 158 169 173 175 177 178 177 180 181 181 180 181 180 183 185 187 190 195 201 201 200 199
76 73 68 73 93 82 68 97 99 111 118 130 135 133 143 151 145 152 146 150 152 149 155 169 175 174 177 183 186 185 183 184 181 182 185 186 189 193 200 204 202 204 206
98 77 104 85 75 77 63 60 78 93 113 151 128 121 147 148 154 149 153 145 149 157 163 168 172 175 176 179 182 186 186 186 185 184 187 189 193 197 198 199 199 204 206
110 109 82 110 113 97 99 94 89 129 142 152 106 103 123 155 158 148 155 158 152 157 160 162 166 164 166 170 175 178 182 188 191 190 192 194 197 199 201 200 200 205 206
122 132 124 128 126 122 104 105 113 138 214 148 143 165 140 106 175 161 161 158 153 149 151 153 161 164 161 160 167 172 177 181 181 185 184 184 185 192 198 199 201 202 200
126 101 115 102 49 109 123 144 151 204 250 216 178 183 165 151 167 150 162 151 139 137 146 154 159 155 157 156 163 172 173 174 181 185 185 183 183 184 187 193 201 204 205
142 133 134 128 95 67 121 204 145 274 256 249 258 265 124 128 150 151 167 147 154 153 166 167 146 145 146 142 140 147 160 169 176 183 187 189 188 187 188 196 203 208 205
156 154 151 149 138 166 147 103 48 327 297 303 300 304 350 189 194 178 173 162 167 168 170 170 145 147 151 151 151 155 160 165 168 173 182 187 191 194 196 200 204 203 200
146 141 153 157 174 180 177 198 227 254 269 312 310 303 280 224 172 166 165 171 171 178 165 161 149 149 154 149 158 154 160 162 164 170 176 179 182 187 194 196 196 198 198
142 152 156 169 186 182 199 210 206 227 268 279 291 294 303 319 86 172 152 169 176 177 159 159 158 148 153 140 147 156 163 165 169 176 180 182 184 186 190 191 197 197 197
151 147 156 171 179 201 219 204 207 205 223 246 272 306 320 340 339 97 173 168 188 172 156 173 162 153 141 144 158 165 169 178 179 183 187 189 189 188 188 187 187 184 184
146 147 158 162 164 153 270 189 162 237 197 247 256 297 308 315 331 307 330 156 193 201 193 190 168 156 136 128 159 174 166 185 189 191 193 195 194 191 190 188 189 190 192
122 136 140 152 147 144 182 161 171 183 167 210 207 42 316 324 330 341 323 290 273 206 189 176 175 152 148 160 169 184 180 181 193 193 195 197 198 200 199 197 195 195 196
146 152 153 167 159 169 177 177 182 198 192 205 221 155 180 333 332 313 305 303 324 347 173 166 153 152 151 148 163 190 180 181 191 201 201 202 201 202 204 204 204 203 202
163 162 169 178 185 174 187 197 211 216 203 184 216 185 248 245 307 314 305 314 298 282 167 190 183 168 183 172 175 208 202 200 194 198 201 205 204 202 203 204 204 203 203
170 171 171 179 191 179 177 219 216 205 224 187 210 204 207 206 243 284 289 290 280 260 215 208 207 188 185 191 183 221 232 229 218 183 194 203 204 200 201 202 201 201 203
173 174 183 191 201 198 195 222 234 202 210 208 218 208 199 206 224 259 253 268 271 274 241 236 217 200 195 197 183 219 236 238 243 198 189 195 199 200 201 199 197 198 200
175 172 186 194 209 211 219 221 230 206 196 208 217 211 182 136 110 263 264 266 265 259 249 238 234 211 209 190 210 236 233 232 222 211 177 198 180 190 197 203 202 201 197
171 176 194 204 215 218 143 139 221 240 197 204 217 210 198 197 194 194 197 194 262 243 253 260 258 232 225 209 215 245 250 253 259 219 203 236 176 189 194 192 194 193 193
179 189 200 203 204 183 158 163 195 225 215 211 215 230 245 223 198 205 211 217 231 237 231 241 252 259 251 250 243 265 269 257 251 242 221 248 211 206 196 187 184 188 189
191 201 213 221 214 204 184 181 212 230 233 225 221 228 236 239 244 230 245 233 227 243 236 227 236 252 248 249 239 247 258 260 253 243 211 236 228 229 226 180 184 184 188
208 210 213 223 227 216 197 194 205 239 238 237 232 233 225 211 222 224 246 257 248 249 242 227 218 227 227 235 237 259 261 254 259 241 213 214 230 230 228 190 191 191 190
218 226 222 217 217 211 202 206 203 244 244 245 238 224 220 214 216 228 231 242 247 245 246 244 237 238 229 228 223 220 234 249 264 254 227 214 223 204 250 221 182 183 196